Location: Newark
(54.4000°N, 32.4500°E)
Time: 02:02:02
(UTC+00:00)

Envisat - Pass Details

Date: 19 January 2020
Orbit: 764 x 766 km, 98.1° (Epoch: 25 February)

Event Time Altitude Azimuth Distance (km) Brightness Sun altitude
Rises 14:33:27 0° 139° (SE) 3,227 6.1 -4.6°
Reaches altitude 10° 14:35:51 10° 133° (SE) 2,305 5.3 -4.9°
Maximum altitude 14:40:35 41° 64° (ENE) 1,099 3.4 -5.5°
Drops below altitude 10° 14:45:22 10° 355° (N) 2,319 5.3 -6.1°
Sets 14:47:46 0° 349° (N) 3,249 6.1 -6.4°
